Location: Baix
(44.7118°N, 4.7648°E)
Time: 09:43:11
(UTC+00:00)

Vanguard 2 Rocket - Pass Details

Date: 29 November 2020
Orbit: 554 x 3325 km, 32.9° (Epoch: 21 January)

Event Time Altitude Azimuth Distance (km) Brightness Sun altitude
Rises 04:05:28 0° 183° (S) 6,593 11.3 -29.7°
Reaches altitude 10° 04:12:24 10° 165° (SSE) 5,967 11.2 -28.4°
Maximum altitude 04:22:24 17° 133° (SE) 5,684 11.5 -26.7°
Drops below altitude 10° 04:32:39 10° 102° (ESE) 6,213 12.2 -24.8°
Sets 04:39:57 0° 85° (E) 6,993 12.8 -23.6°
